Satellite-Ground Cal/Val Region Overpasses Predictions

Prediction of Satellite NPP Overpassing Cal/Val Region: PacNW

Region Location: (Latitude: 10.00, Longitude: 139.50) to (Latitude: 22.70, Longitude: 165.60).

Table of predicted overpasses for the next 14.0 days since TLE Epoch: 10/17/2020
Interval Starting Time Starting Location Ending Time Ending Location
1 10/17/2020 15:23:58 ( 22.65, 153.94) 10/17/2020 15:27:33 ( 10.03, 150.94)
2 10/18/2020 02:33:02 ( 10.05, 161.47) 10/18/2020 02:36:37 ( 22.68, 158.47)
3 10/18/2020 15:04:55 ( 22.66, 158.70) 10/18/2020 15:08:30 ( 10.04, 155.70)
4 10/19/2020 02:14:47 ( 12.81, 165.60) 10/19/2020 02:17:35 ( 22.67, 163.23)
5 10/19/2020 03:55:30 ( 10.05, 140.85) 10/19/2020 03:57:09 ( 15.87, 139.51)
6 10/19/2020 14:45:53 ( 22.67, 163.45) 10/19/2020 14:49:28 ( 10.05, 160.46)
7 10/20/2020 03:36:27 ( 10.04, 145.61) 10/20/2020 03:40:02 ( 22.67, 142.62)
8 10/20/2020 14:29:57 ( 11.70, 165.59) 10/20/2020 14:30:26 ( 10.00, 165.20)
9 10/20/2020 16:08:20 ( 22.67, 142.84) 10/20/2020 16:11:55 ( 10.05, 139.84)
10 10/21/2020 03:17:25 ( 10.04, 150.37) 10/21/2020 03:21:00 ( 22.66, 147.37)
11 10/21/2020 15:49:18 ( 22.68, 147.60) 10/21/2020 15:52:54 ( 10.00, 144.59)
12 10/22/2020 02:58:23 ( 10.03, 155.13) 10/22/2020 03:01:58 ( 22.65, 152.13)
13 10/22/2020 15:30:15 ( 22.69, 152.36) 10/22/2020 15:33:51 ( 10.01, 149.35)
14 10/23/2020 02:39:20 ( 10.02, 159.89) 10/23/2020 02:42:56 ( 22.70, 156.88)
15 10/23/2020 15:11:13 ( 22.70, 157.12) 10/23/2020 15:14:49 ( 10.02, 154.11)
16 10/24/2020 02:20:18 ( 10.01, 164.65) 10/24/2020 02:23:54 ( 22.69, 161.64)
17 10/24/2020 14:52:11 ( 22.65, 161.86) 10/24/2020 14:55:46 ( 10.03, 158.86)
18 10/25/2020 03:42:45 ( 10.01, 144.03) 10/25/2020 03:46:21 ( 22.69, 141.02)
19 10/25/2020 14:34:20 ( 18.49, 165.60) 10/25/2020 14:36:44 ( 10.03, 163.62)
20 10/25/2020 16:14:39 ( 22.65, 141.24) 10/25/2020 16:16:41 ( 15.49, 139.51)
21 10/26/2020 03:23:43 ( 10.00, 148.79) 10/26/2020 03:27:19 ( 22.68, 145.78)
22 10/26/2020 15:55:36 ( 22.66, 146.00) 10/26/2020 15:59:11 ( 10.03, 143.01)
23 10/27/2020 03:04:41 ( 10.05, 153.54) 10/27/2020 03:08:16 ( 22.68, 150.54)
24 10/27/2020 15:36:34 ( 22.66, 150.76) 10/27/2020 15:40:09 ( 10.04, 147.77)
25 10/28/2020 02:45:39 ( 10.05, 158.30) 10/28/2020 02:49:14 ( 22.67, 155.30)
26 10/28/2020 15:17:31 ( 22.67, 155.52) 10/28/2020 15:21:06 ( 10.05, 152.52)
27 10/29/2020 02:26:36 ( 10.04, 163.06) 10/29/2020 02:30:11 ( 22.66, 160.06)
28 10/29/2020 14:58:29 ( 22.68, 160.28) 10/29/2020 15:02:04 ( 10.06, 157.28)
29 10/30/2020 02:10:15 ( 19.49, 165.60) 10/30/2020 02:11:09 ( 22.66, 164.82)
30 10/30/2020 03:49:04 ( 10.04, 142.44) 10/30/2020 03:52:34 ( 22.37, 139.51)
31 10/30/2020 14:39:27 ( 22.68, 165.04) 10/30/2020 14:43:03 ( 10.00, 162.03)
32 10/30/2020 16:20:57 ( 22.68, 139.66) 10/30/2020 16:21:08 ( 22.03, 139.50)
